EN

Hourly Weather Alto Longa

Today, 22 January, Friday

Time Temperature Precipitation Wind Pressure Humidity
00:00 +25°C° 0 mm 1 mps 746 mmHg 88%
01:00 +25°C° 0 mm 1 mps 745 mmHg 89%
02:00 +25°C° 0 mm 1 mps 745 mmHg 91%
03:00 +24°C° 0 mm 1 mps 745 mmHg 92%
04:00 +24°C° 0 mm 1 mps 745 mmHg 92%
05:00 +24°C° 0 mm 1 mps 746 mmHg 93%
06:00 +24°C° 0 mm 1 mps 747 mmHg 93%
07:00 +25°C° 0.1 mm 1 mps 747 mmHg 88%
08:00 +27°C° 0.1 mm 1 mps 747 mmHg 83%
09:00 +28°C° 0.1 mm 1 mps 748 mmHg 78%
10:00 +29°C° 0.1 mm 1 mps 748 mmHg 73%
11:00 +30°C° 0.1 mm 1 mps 747 mmHg 68%
12:00 +31°C° 0.1 mm 1 mps 747 mmHg 63%
13:00 +31°C° 0 mm 2 mps 747 mmHg 62%
14:00 +31°C° 0 mm 2 mps 746 mmHg 62%
15:00 +31°C° 0 mm 2 mps 745 mmHg 61%
16:00 +30°C° 0 mm 2 mps 745 mmHg 66%
17:00 +29°C° 0 mm 2 mps 745 mmHg 70%
18:00 +28°C° 0 mm 2 mps 746 mmHg 74%
19:00 +28°C° 0 mm 1 mps 746 mmHg 76%
20:00 +27°C° 0 mm 1 mps 746 mmHg 78%
21:00 +25°C° 0 mm 0 mps 746 mmHg 81%
22:00 +24°C° 0 mm 0 mps 746 mmHg 81%
23:00 +24°C° 0 mm 0 mps 746 mmHg 82%

Tomorrow, 23 January, Saturday

Time Temperature Precipitation Wind Pressure Humidity
00:00 +24°C° 0 mm 0 mps 746 mmHg 83%
01:00 +24°C° 0 mm 0 mps 746 mmHg 84%
02:00 +24°C° 0 mm 0 mps 745 mmHg 85%
03:00 +23°C° 0 mm 0 mps 745 mmHg 86%
04:00 +25°C° 0 mm 1 mps 745 mmHg 86%
05:00 +25°C° 0 mm 1 mps 745 mmHg 86%
06:00 +25°C° 0 mm 1 mps 746 mmHg 86%
07:00 +26°C° 0 mm 1 mps 746 mmHg 81%
08:00 +27°C° 0 mm 1 mps 746 mmHg 76%
09:00 +28°C° 0 mm 2 mps 747 mmHg 71%
10:00 +29°C° 0 mm 2 mps 747 mmHg 66%
11:00 +31°C° 0 mm 1 mps 746 mmHg 61%
12:00 +32°C° 0 mm 1 mps 746 mmHg 56%
13:00 +32°C° 0 mm 2 mps 745 mmHg 58%
14:00 +31°C° 0 mm 2 mps 745 mmHg 60%
15:00 +31°C° 0 mm 2 mps 744 mmHg 62%
16:00 +30°C° 0.1 mm 2 mps 744 mmHg 65%
17:00 +30°C° 0.1 mm 2 mps 744 mmHg 68%
18:00 +29°C° 0.1 mm 1 mps 744 mmHg 72%
19:00 +28°C° 0.2 mm 2 mps 744 mmHg 74%
20:00 +27°C° 0.2 mm 2 mps 745 mmHg 77%
21:00 +26°C° 0.2 mm 2 mps 745 mmHg 79%
22:00 +26°C° 0.6 mm 2 mps 746 mmHg 84%
23:00 +25°C° 0.6 mm 3 mps 746 mmHg 89%

Day after tomorrow, 24 January, Sunday

Time Temperature Precipitation Wind Pressure Humidity
00:00 +25°C° 0.6 mm 3 mps 746 mmHg 94%
01:00 +24°C° 0.2 mm 2 mps 745 mmHg 93%
02:00 +24°C° 0.2 mm 1 mps 745 mmHg 93%
03:00 +24°C° 0.2 mm 1 mps 744 mmHg 92%
04:00 +24°C° 0 mm 1 mps 745 mmHg 92%
05:00 +24°C° 0 mm 1 mps 745 mmHg 92%
06:00 +24°C° 0 mm 2 mps 745 mmHg 93%
07:00 +25°C° 0 mm 2 mps 746 mmHg 89%
08:00 +26°C° 0 mm 2 mps 746 mmHg 85%
09:00 +27°C° 0 mm 2 mps 746 mmHg 81%
10:00 +29°C° 0.4 mm 2 mps 746 mmHg 74%
11:00 +31°C° 0.4 mm 2 mps 745 mmHg 67%
12:00 +34°C° 0.4 mm 3 mps 745 mmHg 60%
13:00 +32°C° 1.9 mm 2 mps 744 mmHg 64%
14:00 +31°C° 1.9 mm 2 mps 744 mmHg 68%
15:00 +31°C° 1.9 mm 2 mps 743 mmHg 73%
16:00 +30°C° 0.7 mm 2 mps 743 mmHg 78%
17:00 +28°C° 0.7 mm 2 mps 743 mmHg 82%
18:00 +27°C° 0.7 mm 2 mps 743 mmHg 87%
19:00 +27°C° 0.3 mm 1 mps 744 mmHg 89%
20:00 +26°C° 0.3 mm 1 mps 744 mmHg 90%
21:00 +26°C° 0.3 mm 1 mps 745 mmHg 92%
22:00 +25°C° 0.1 mm 1 mps 745 mmHg 93%
23:00 +25°C° 0.1 mm 1 mps 744 mmHg 93%

25 January, Monday

Time Temperature Precipitation Wind Pressure Humidity
00:00 +25°C° 0.1 mm 1 mps 744 mmHg 94%
01:00 +25°C° 0 mm 1 mps 744 mmHg 95%
02:00 +24°C° 0 mm 1 mps 744 mmHg 96%
03:00 +24°C° 0 mm 1 mps 743 mmHg 97%
04:00 +24°C° 0 mm 1 mps 744 mmHg 97%
05:00 +24°C° 0 mm 1 mps 744 mmHg 97%
06:00 +24°C° 0 mm 1 mps 744 mmHg 98%
07:00 +25°C° 0.2 mm 1 mps 745 mmHg 92%
08:00 +27°C° 0.2 mm 1 mps 745 mmHg 85%
09:00 +29°C° 0.2 mm 1 mps 746 mmHg 79%
10:00 +30°C° 0.1 mm 2 mps 745 mmHg 71%
11:00 +32°C° 0.1 mm 2 mps 745 mmHg 62%
12:00 +35°C° 0.1 mm 2 mps 745 mmHg 54%
13:00 +34°C° 0 mm 2 mps 744 mmHg 54%
14:00 +33°C° 0 mm 1 mps 743 mmHg 55%
15:00 +33°C° 0 mm 1 mps 742 mmHg 56%
16:00 +32°C° 0 mm 1 mps 743 mmHg 60%
17:00 +31°C° 0 mm 1 mps 743 mmHg 64%
18:00 +30°C° 0 mm 1 mps 743 mmHg 68%
19:00 +29°C° 0 mm 1 mps 743 mmHg 71%
20:00 +28°C° 0 mm 1 mps 744 mmHg 74%
21:00 +26°C° 0 mm 0 mps 744 mmHg 76%
22:00 +27°C° 0.1 mm 1 mps 744 mmHg 79%
23:00 +27°C° 0.1 mm 1 mps 744 mmHg 81%

26 January, Tuesday

Time Temperature Precipitation Wind Pressure Humidity
00:00 +26°C° 0.1 mm 2 mps 744 mmHg 83%
01:00 +26°C° 0.1 mm 1 mps 744 mmHg 88%
02:00 +25°C° 0.1 mm 1 mps 744 mmHg 92%
03:00 +25°C° 0.1 mm 1 mps 743 mmHg 96%
04:00 +24°C° 0.3 mm 1 mps 744 mmHg 96%
05:00 +24°C° 0.3 mm 1 mps 744 mmHg 96%
06:00 +24°C° 0.3 mm 1 mps 745 mmHg 96%
07:00 +26°C° 0.1 mm 1 mps 745 mmHg 89%
08:00 +27°C° 0.1 mm 1 mps 746 mmHg 82%
09:00 +29°C° 0.1 mm 2 mps 746 mmHg 75%
10:00 +30°C° 0.1 mm 2 mps 746 mmHg 68%
11:00 +32°C° 0.1 mm 2 mps 745 mmHg 60%
12:00 +34°C° 0.1 mm 1 mps 745 mmHg 53%
13:00 +34°C° 0 mm 1 mps 744 mmHg 54%
14:00 +33°C° 0 mm 1 mps 744 mmHg 55%
15:00 +33°C° 0 mm 1 mps 743 mmHg 56%
16:00 +32°C° 0 mm 1 mps 743 mmHg 61%
17:00 +31°C° 0 mm 1 mps 743 mmHg 65%
18:00 +29°C° 0 mm 1 mps 743 mmHg 70%
19:00 +29°C° 0 mm 1 mps 744 mmHg 73%
20:00 +28°C° 0 mm 1 mps 744 mmHg 75%
21:00 +27°C° 0 mm 1 mps 745 mmHg 77%
22:00 +27°C° 0 mm 1 mps 745 mmHg 79%
23:00 +26°C° 0 mm 1 mps 745 mmHg 82%

27 January, Wednesday

Time Temperature Precipitation Wind Pressure Humidity
00:00 +26°C° 0 mm 1 mps 744 mmHg 84%
01:00 +25°C° 0 mm 1 mps 744 mmHg 87%
02:00 +25°C° 0 mm 1 mps 744 mmHg 89%
03:00 +24°C° 0 mm 1 mps 744 mmHg 92%
04:00 +24°C° 0.1 mm 1 mps 744 mmHg 93%
05:00 +24°C° 0.1 mm 1 mps 745 mmHg 93%
06:00 +22°C° 0.1 mm 0 mps 745 mmHg 94%
07:00 +26°C° 0.1 mm 1 mps 745 mmHg 85%
08:00 +28°C° 0.1 mm 1 mps 746 mmHg 77%
09:00 +30°C° 0.1 mm 2 mps 746 mmHg 68%
10:00 +31°C° 0 mm 2 mps 746 mmHg 60%
11:00 +34°C° 0 mm 2 mps 745 mmHg 53%
12:00 +36°C° 0 mm 2 mps 745 mmHg 45%
13:00 +36°C° 0 mm 2 mps 744 mmHg 44%
14:00 +36°C° 0 mm 2 mps 744 mmHg 43%
15:00 +36°C° 0 mm 2 mps 743 mmHg 43%
16:00 +35°C° 0 mm 2 mps 743 mmHg 49%
17:00 +32°C° 0 mm 2 mps 743 mmHg 55%
18:00 +31°C° 0 mm 1 mps 743 mmHg 61%
19:00 +29°C° 0 mm 1 mps 744 mmHg 65%
20:00 +28°C° 0 mm 1 mps 744 mmHg 68%
21:00 +27°C° 0 mm 1 mps 745 mmHg 72%
22:00 +26°C° 0.3 mm 1 mps 745 mmHg 77%
23:00 +26°C° 0.3 mm 1 mps 745 mmHg 81%
Show more